SWR430 EGKK-LSZH

Flight info

Callsign SWR430
Flight time N/A
Altitude 29000
Route ODVIK Y311 DVR UL9 KONAN DCT KOK DCT REMBA DCT RITAX DCT SUTAL DCT GTQ DCT BAMEV DCT BLM
Aircraft A333/H-SDE3GHIJ2J3J5M1RVWXY/LB2D1

Departure

Time 2026-05-05 11:35
Airport London Gatwick Airport (EGKK)

Arrival

Time N/A
Airport Zürich Airport (LSZH)
Time Latitude Longitude Altitude Speed Heading
2026-05-05 10:55 51.15826 -0.17631 212 ft 0 kts 347°
2026-05-05 11:14 51.15824 -0.17631 209 ft 2 kts 347°
2026-05-05 11:14 51.15820 -0.17629 219 ft 0 kts 346°
2026-05-05 11:14 51.15813 -0.17626 218 ft 0 kts 346°
2026-05-05 11:15 51.15808 -0.17624 217 ft 2 kts 345°
2026-05-05 11:15 51.15804 -0.17623 212 ft 0 kts 343°
2026-05-05 11:16 51.15802 -0.17622 212 ft 2 kts 343°
2026-05-05 11:16 51.15789 -0.17616 216 ft 2 kts 341°
2026-05-05 11:16 51.15777 -0.17609 222 ft 2 kts 334°
2026-05-05 11:16 51.15765 -0.17599 221 ft 2 kts 322°
2026-05-05 11:17 51.15756 -0.17585 222 ft 2 kts 288°
2026-05-05 11:17 51.15754 -0.17567 219 ft 1 kts 255°
2026-05-05 11:17 51.15755 -0.17565 222 ft 0 kts 256°
2026-05-05 11:18 51.15754 -0.17566 220 ft 0 kts 256°
2026-05-05 11:21 51.15755 -0.17563 220 ft 0 kts 257°
2026-05-05 11:22 51.15748 -0.17609 220 ft 8 kts 257°
2026-05-05 11:22 51.15734 -0.17712 217 ft 11 kts 257°
2026-05-05 11:22 51.15715 -0.17844 215 ft 14 kts 257°
2026-05-05 11:22 51.15694 -0.17997 215 ft 15 kts 257°
2026-05-05 11:23 51.15671 -0.18164 216 ft 16 kts 257°
2026-05-05 11:23 51.15637 -0.18327 215 ft 15 kts 221°
2026-05-05 11:23 51.15546 -0.18333 213 ft 13 kts 168°
2026-05-05 11:23 51.15450 -0.18302 218 ft 15 kts 168°
2026-05-05 11:24 51.15342 -0.18265 218 ft 16 kts 167°
2026-05-05 11:24 51.15232 -0.18230 218 ft 15 kts 180°
2026-05-05 11:24 51.15186 -0.18328 219 ft 11 kts 258°
2026-05-05 11:24 51.15169 -0.18456 215 ft 13 kts 258°
2026-05-05 11:25 51.15148 -0.18603 211 ft 15 kts 257°
2026-05-05 11:25 51.15124 -0.18772 217 ft 16 kts 257°
2026-05-05 11:25 51.15099 -0.18947 217 ft 17 kts 257°
2026-05-05 11:25 51.15073 -0.19130 219 ft 17 kts 257°
2026-05-05 11:26 51.15048 -0.19321 218 ft 17 kts 257°
2026-05-05 11:26 51.15020 -0.19518 215 ft 19 kts 257°
2026-05-05 11:26 51.14990 -0.19734 213 ft 16 kts 257°
2026-05-05 11:26 51.14971 -0.19871 218 ft 14 kts 258°
2026-05-05 11:27 51.14952 -0.20007 217 ft 11 kts 257°
2026-05-05 11:27 51.14939 -0.20097 216 ft 0 kts 257°
2026-05-05 11:27 51.14937 -0.20116 215 ft 5 kts 258°
2026-05-05 11:27 51.14925 -0.20204 213 ft 10 kts 258°
2026-05-05 11:28 51.14909 -0.20332 212 ft 13 kts 258°
2026-05-05 11:28 51.14888 -0.20490 215 ft 16 kts 257°
2026-05-05 11:28 51.14863 -0.20669 208 ft 17 kts 257°
2026-05-05 11:28 51.14836 -0.20864 215 ft 19 kts 257°
2026-05-05 11:29 51.14812 -0.21039 220 ft 8 kts 257°
2026-05-05 11:29 51.14795 -0.21137 220 ft 10 kts 249°
2026-05-05 11:29 51.14773 -0.21252 209 ft 12 kts 255°
2026-05-05 11:29 51.14753 -0.21375 216 ft 9 kts 245°
2026-05-05 11:30 51.14724 -0.21398 220 ft 4 kts 189°
2026-05-05 11:30 51.14692 -0.21393 218 ft 6 kts 167°
2026-05-05 11:30 51.14681 -0.21385 217 ft 0 kts 151°
2026-05-05 11:31 51.14673 -0.21376 214 ft 3 kts 143°
2026-05-05 11:32 51.14652 -0.21351 219 ft 5 kts 149°
2026-05-05 11:32 51.14629 -0.21336 216 ft 0 kts 163°
2026-05-05 11:32 51.14620 -0.21332 220 ft 5 kts 164°
2026-05-05 11:33 51.14556 -0.21289 221 ft 14 kts 143°
2026-05-05 11:33 51.14524 -0.21153 215 ft 13 kts 83°
2026-05-05 11:33 51.14530 -0.21108 219 ft 0 kts 78°
2026-05-05 11:34 51.14530 -0.21106 219 ft 1 kts 78°
2026-05-05 11:35 51.14539 -0.21038 221 ft 24 kts 78°
2026-05-05 11:35 51.14628 -0.20398 217 ft 94 kts 78°
2026-05-05 11:35 51.14818 -0.19043 231 ft 154 kts 76°
2026-05-05 11:35 51.15047 -0.17331 941 ft 165 kts 77°
2026-05-05 11:36 51.15293 -0.15482 1744 ft 183 kts 73°
2026-05-05 11:36 51.15598 -0.13345 2307 ft 215 kts 74°
2026-05-05 11:36 51.15953 -0.10834 2867 ft 244 kts 75°
2026-05-05 11:36 51.16332 -0.08098 3697 ft 259 kts 76°
2026-05-05 11:37 51.16709 -0.05301 4824 ft 259 kts 78°
2026-05-05 11:37 51.16889 -0.02393 5560 ft 273 kts 88°
2026-05-05 11:37 51.16866 0.00798 5973 ft 303 kts 91°
2026-05-05 11:37 51.16793 0.04248 6061 ft 308 kts 91°
2026-05-05 11:38 51.16719 0.07504 6358 ft 280 kts 91°
2026-05-05 11:38 51.16654 0.10519 6675 ft 269 kts 91°
2026-05-05 11:38 51.16594 0.13512 6988 ft 271 kts 91°
2026-05-05 11:38 51.16566 0.16523 7286 ft 276 kts 89°
2026-05-05 11:39 51.16566 0.19703 7604 ft 300 kts 89°
2026-05-05 11:39 51.16573 0.23125 7937 ft 326 kts 89°
2026-05-05 11:39 51.16580 0.26808 8139 ft 331 kts 89°
2026-05-05 11:39 51.16584 0.29279 8137 ft 327 kts 89°
2026-05-05 11:40 51.16587 0.32842 8053 ft 324 kts 89°
2026-05-05 11:40 51.16590 0.36593 8318 ft 351 kts 89°
2026-05-05 11:40 51.16591 0.41822 9402 ft 361 kts 89°
2026-05-05 11:40 51.16590 0.44551 9995 ft 365 kts 90°
2026-05-05 11:41 51.16587 0.48627 10809 ft 371 kts 89°
2026-05-05 11:41 51.16585 0.52753 11702 ft 372 kts 89°
2026-05-05 11:41 51.16583 0.56803 13050 ft 360 kts 90°
2026-05-05 11:41 51.16580 0.60774 14189 ft 356 kts 89°
2026-05-05 11:42 51.16575 0.64730 15027 ft 359 kts 90°
2026-05-05 11:42 51.16534 0.68733 15726 ft 365 kts 91°
2026-05-05 11:42 51.16453 0.72808 16414 ft 370 kts 92°
2026-05-05 11:42 51.16354 0.76925 17201 ft 373 kts 92°
2026-05-05 11:43 51.16249 0.81082 17914 ft 378 kts 92°
2026-05-05 11:43 51.16145 0.85300 18546 ft 383 kts 92°
2026-05-05 11:43 51.16043 0.89568 19157 ft 387 kts 92°
2026-05-05 11:43 51.15942 0.93879 19707 ft 392 kts 92°
2026-05-05 11:44 51.15842 0.98234 20351 ft 394 kts 93°
2026-05-05 11:44 51.15741 1.02594 21058 ft 394 kts 93°
2026-05-05 11:44 51.15639 1.06976 21636 ft 399 kts 93°
2026-05-05 11:44 51.15534 1.11420 22184 ft 403 kts 93°
2026-05-05 11:45 51.15427 1.15894 22737 ft 407 kts 94°
2026-05-05 11:45 51.15314 1.20460 22947 ft 419 kts 94°
2026-05-05 11:45 51.15194 1.25186 22957 ft 435 kts 94°
2026-05-05 11:45 51.15068 1.30085 22959 ft 450 kts 94°
2026-05-05 11:46 51.14939 1.35095 23546 ft 450 kts 94°
2026-05-05 11:46 51.14813 1.40018 24496 ft 440 kts 94°
2026-05-05 11:46 51.14689 1.44834 25403 ft 431 kts 94°
2026-05-05 11:46 51.14563 1.49587 26065 ft 429 kts 94°
2026-05-05 11:47 51.14433 1.54347 26533 ft 432 kts 94°
2026-05-05 11:47 51.14298 1.59136 26929 ft 435 kts 95°
2026-05-05 11:47 51.14160 1.63970 27350 ft 438 kts 95°
2026-05-05 11:47 51.14019 1.68839 27769 ft 441 kts 95°
2026-05-05 11:48 51.13730 1.78674 28594 ft 448 kts 95°
2026-05-05 11:48 51.13581 1.83640 28899 ft 453 kts 95°
2026-05-05 11:48 51.13427 1.88692 28941 ft 457 kts 95°
2026-05-05 11:49 51.13118 1.98703 28939 ft 451 kts 95°
2026-05-05 11:49 51.12674 2.08633 28938 ft 449 kts 97°
2026-05-05 11:50 51.12121 2.18541 28939 ft 449 kts 97°
2026-05-05 11:50 51.11558 2.28435 28935 ft 449 kts 97°
2026-05-05 11:51 51.11003 2.38331 28918 ft 449 kts 97°
2026-05-05 11:51 51.10445 2.48243 28929 ft 449 kts 97°
2026-05-05 11:52 51.09882 2.58145 28929 ft 449 kts 97°
2026-05-05 11:52 51.08908 2.67927 28922 ft 447 kts 105°
2026-05-05 11:53 51.07302 2.77463 28925 ft 446 kts 107°
2026-05-05 11:53 51.05568 2.86945 28935 ft 447 kts 108°
2026-05-05 11:54 51.03817 2.96409 28933 ft 450 kts 108°
2026-05-05 11:54 51.02056 3.05957 28926 ft 450 kts 108°
2026-05-05 11:55 51.00294 3.15506 28921 ft 450 kts 108°
2026-05-05 11:55 50.98529 3.25042 28917 ft 450 kts 108°
2026-05-05 11:56 50.96764 3.34521 28917 ft 451 kts 109°
2026-05-05 11:56 50.94977 3.44067 28911 ft 452 kts 109°
2026-05-05 11:57 50.93180 3.53614 28912 ft 452 kts 109°
2026-05-05 11:57 50.91373 3.63169 28906 ft 452 kts 109°
2026-05-05 11:58 50.89558 3.72719 28904 ft 452 kts 109°
2026-05-05 11:58 50.87737 3.82249 28902 ft 452 kts 110°
2026-05-05 11:59 50.85908 3.91776 28905 ft 452 kts 110°
2026-05-05 11:59 50.84082 4.01232 28900 ft 452 kts 110°
2026-05-05 12:00 50.82238 4.10744 28905 ft 451 kts 110°
2026-05-05 12:00 50.80387 4.20241 28904 ft 451 kts 110°
2026-05-05 12:01 50.78537 4.29697 28911 ft 447 kts 111°
2026-05-05 12:01 50.76695 4.39058 28915 ft 446 kts 111°
2026-05-05 12:02 50.74855 4.48347 28908 ft 446 kts 111°
2026-05-05 12:02 50.72998 4.57690 28905 ft 445 kts 111°
2026-05-05 12:03 50.71134 4.67018 28900 ft 446 kts 111°
2026-05-05 12:03 50.69262 4.76349 28891 ft 446 kts 111°
2026-05-05 12:04 50.67353 4.85584 28891 ft 444 kts 115°
2026-05-05 12:04 50.64342 4.93939 28889 ft 435 kts 132°
2026-05-05 12:05 50.60236 5.00912 28893 ft 433 kts 138°
2026-05-05 12:05 50.55918 5.07541 28890 ft 433 kts 139°
2026-05-05 12:06 50.51572 5.14131 28887 ft 434 kts 138°
2026-05-05 12:06 50.47263 5.20729 28880 ft 436 kts 139°
2026-05-05 12:07 50.42922 5.27381 28878 ft 435 kts 138°
2026-05-05 12:07 50.38584 5.34023 28880 ft 435 kts 138°
2026-05-05 12:08 50.34250 5.40644 28849 ft 435 kts 139°
2026-05-05 12:08 50.29931 5.47221 28870 ft 435 kts 139°
2026-05-05 12:09 50.25591 5.53815 28851 ft 434 kts 138°
2026-05-05 12:09 50.21235 5.60414 28858 ft 436 kts 138°
2026-05-05 12:10 50.16862 5.67019 28854 ft 436 kts 138°
2026-05-05 12:10 50.12522 5.73557 28837 ft 436 kts 138°
2026-05-05 12:11 50.08073 5.79991 28843 ft 434 kts 144°
2026-05-05 12:11 50.03095 5.85291 28840 ft 433 kts 149°
2026-05-05 12:12 49.97993 5.90257 28838 ft 432 kts 150°
2026-05-05 12:12 49.92897 5.95118 28840 ft 431 kts 150°
2026-05-05 12:13 49.87791 6.00005 28851 ft 431 kts 150°
2026-05-05 12:13 49.82692 6.04902 28846 ft 431 kts 150°
2026-05-05 12:14 49.77591 6.09796 28846 ft 431 kts 150°
2026-05-05 12:14 49.72517 6.14643 28856 ft 431 kts 150°
2026-05-05 12:15 49.67409 6.19510 28856 ft 431 kts 150°
2026-05-05 12:15 49.62304 6.24364 28857 ft 431 kts 150°
2026-05-05 12:16 49.57195 6.29210 28842 ft 431 kts 150°
2026-05-05 12:16 49.52078 6.34050 28857 ft 433 kts 150°
2026-05-05 12:17 49.46905 6.38800 28854 ft 432 kts 155°
2026-05-05 12:17 49.41474 6.42744 28860 ft 431 kts 157°
2026-05-05 12:18 49.35985 6.46491 28863 ft 431 kts 158°
2026-05-05 12:18 49.30484 6.50193 28864 ft 432 kts 157°
2026-05-05 12:19 49.24980 6.53905 28869 ft 433 kts 157°
2026-05-05 12:19 49.19472 6.57624 28872 ft 433 kts 157°
2026-05-05 12:20 49.13966 6.61337 28873 ft 432 kts 157°
2026-05-05 12:20 49.08504 6.65010 28873 ft 429 kts 157°
2026-05-05 12:21 49.03063 6.68660 28871 ft 426 kts 157°
2026-05-05 12:21 48.97631 6.72253 28875 ft 426 kts 158°
2026-05-05 12:22 48.92132 6.75577 28875 ft 425 kts 160°
2026-05-05 12:22 48.86608 6.78803 28875 ft 425 kts 159°
2026-05-05 12:23 48.81103 6.82027 28872 ft 424 kts 159°
2026-05-05 12:23 48.75605 6.85264 28874 ft 424 kts 159°
2026-05-05 12:24 48.70110 6.88501 28873 ft 424 kts 159°
2026-05-05 12:24 48.64614 6.91732 28873 ft 424 kts 159°
2026-05-05 12:25 48.59114 6.94955 28854 ft 424 kts 159°
2026-05-05 12:25 48.54556 6.97621 28878 ft 422 kts 159°
2026-05-05 12:26 48.49074 7.00684 28560 ft 419 kts 161°
2026-05-05 12:26 48.46341 7.02187 28278 ft 418 kts 161°
2026-05-05 12:26 48.43618 7.03707 28016 ft 417 kts 161°
2026-05-05 12:27 48.40908 7.05245 27755 ft 416 kts 161°
2026-05-05 12:27 48.38206 7.06797 27487 ft 415 kts 160°
2026-05-05 12:27 48.35512 7.08355 27227 ft 415 kts 160°
2026-05-05 12:27 48.32823 7.09915 26967 ft 414 kts 160°
2026-05-05 12:28 48.30144 7.11469 26706 ft 413 kts 160°
2026-05-05 12:28 48.27464 7.13021 26437 ft 412 kts 160°
2026-05-05 12:28 48.24793 7.14566 26182 ft 411 kts 160°
2026-05-05 12:28 48.22127 7.16105 25933 ft 408 kts 160°
2026-05-05 12:29 48.19513 7.17614 25580 ft 398 kts 161°
2026-05-05 12:29 48.16940 7.19096 25108 ft 394 kts 161°
2026-05-05 12:29 48.14391 7.20560 24632 ft 392 kts 161°
2026-05-05 12:29 48.11853 7.22015 24165 ft 390 kts 161°
2026-05-05 12:30 48.09325 7.23466 23698 ft 388 kts 161°
2026-05-05 12:30 48.06808 7.24910 23173 ft 386 kts 161°
2026-05-05 12:30 48.04313 7.26341 22692 ft 381 kts 161°
2026-05-05 12:30 48.01854 7.27749 22250 ft 376 kts 161°
2026-05-05 12:31 47.99419 7.29140 21797 ft 373 kts 161°
2026-05-05 12:31 47.97005 7.30519 21349 ft 370 kts 161°
2026-05-05 12:31 47.94608 7.31886 20910 ft 368 kts 162°
2026-05-05 12:31 47.92223 7.33245 20458 ft 366 kts 162°
2026-05-05 12:32 47.89849 7.34595 20029 ft 365 kts 162°
2026-05-05 12:32 47.87515 7.35921 19597 ft 363 kts 162°
2026-05-05 12:32 47.85164 7.37256 19157 ft 361 kts 162°
2026-05-05 12:32 47.82828 7.38601 18728 ft 359 kts 161°
2026-05-05 12:33 47.80509 7.39959 18305 ft 357 kts 161°
2026-05-05 12:33 47.78198 7.41300 17812 ft 356 kts 161°
2026-05-05 12:33 47.75901 7.42623 17359 ft 353 kts 162°
2026-05-05 12:33 47.73625 7.43923 16943 ft 348 kts 162°
2026-05-05 12:34 47.71368 7.45203 16524 ft 346 kts 162°
2026-05-05 12:34 47.69123 7.46472 16092 ft 345 kts 162°
2026-05-05 12:34 47.66884 7.47748 15661 ft 344 kts 161°
2026-05-05 12:34 47.64778 7.49420 15215 ft 346 kts 148°
2026-05-05 12:35 47.63056 7.51933 14776 ft 351 kts 130°
2026-05-05 12:35 47.61914 7.55134 14345 ft 354 kts 116°
2026-05-05 12:35 47.61077 7.58559 13893 ft 353 kts 113°
2026-05-05 12:35 47.60294 7.61997 13430 ft 351 kts 112°
2026-05-05 12:36 47.59515 7.65415 12955 ft 348 kts 113°
2026-05-05 12:36 47.58736 7.68797 12503 ft 346 kts 113°
2026-05-05 12:36 47.57953 7.72161 12057 ft 347 kts 113°
2026-05-05 12:36 47.57142 7.75611 11655 ft 362 kts 113°
2026-05-05 12:37 47.56312 7.79139 11038 ft 362 kts 113°
2026-05-05 12:37 47.55495 7.82630 10603 ft 354 kts 114°
2026-05-05 12:37 47.54701 7.86018 10329 ft 342 kts 114°
2026-05-05 12:37 47.53935 7.89273 10004 ft 325 kts 114°
2026-05-05 12:38 47.53224 7.92323 9603 ft 304 kts 114°
2026-05-05 12:38 47.52535 7.95248 9028 ft 300 kts 115°
2026-05-05 12:38 47.51841 7.98162 8539 ft 300 kts 115°
2026-05-05 12:38 47.51178 8.01026 8160 ft 298 kts 111°
2026-05-05 12:39 47.50955 8.04126 7727 ft 304 kts 86°
2026-05-05 12:39 47.51612 8.07052 7358 ft 307 kts 65°
2026-05-05 12:39 47.52670 8.09745 7135 ft 298 kts 60°
2026-05-05 12:39 47.53764 8.12346 6716 ft 298 kts 60°
2026-05-05 12:40 47.54863 8.14956 6332 ft 298 kts 60°
2026-05-05 12:40 47.55944 8.17548 5953 ft 295 kts 60°
2026-05-05 12:40 47.57014 8.20130 5559 ft 291 kts 60°
2026-05-05 12:40 47.58067 8.22684 5138 ft 291 kts 60°
2026-05-05 12:41 47.59117 8.25231 4950 ft 290 kts 60°
2026-05-05 12:41 47.60169 8.27840 4524 ft 301 kts 61°
2026-05-05 12:41 47.61229 8.30558 4101 ft 304 kts 65°
2026-05-05 12:41 47.61671 8.33457 3992 ft 276 kts 98°
2026-05-05 12:42 47.61010 8.35892 3997 ft 243 kts 133°
2026-05-05 12:42 47.59901 8.37610 4013 ft 219 kts 141°
2026-05-05 12:42 47.58813 8.39079 4016 ft 204 kts 142°
2026-05-05 12:42 47.57797 8.40440 3998 ft 190 kts 142°
2026-05-05 12:43 47.56834 8.41738 3991 ft 185 kts 141°
2026-05-05 12:43 47.55888 8.43021 3987 ft 184 kts 141°
2026-05-05 12:43 47.54944 8.44306 3956 ft 184 kts 141°
2026-05-05 12:43 47.54001 8.45592 3874 ft 185 kts 141°
2026-05-05 12:44 47.53057 8.46880 3558 ft 186 kts 141°
2026-05-05 12:44 47.52080 8.48208 3055 ft 195 kts 142°
2026-05-05 12:44 47.51075 8.49575 2592 ft 197 kts 142°
2026-05-05 12:44 47.50074 8.50908 2345 ft 199 kts 142°
2026-05-05 12:45 47.48915 8.52377 2638 ft 230 kts 142°
2026-05-05 12:45 47.47693 8.54032 2797 ft 247 kts 141°
2026-05-05 12:45 47.46453 8.55761 3430 ft 240 kts 140°
2026-05-05 12:45 47.45273 8.57409 4449 ft 228 kts 140°
2026-05-05 12:46 47.44103 8.59028 5332 ft 237 kts 141°
2026-05-05 12:46 47.42826 8.60768 5828 ft 265 kts 141°
2026-05-05 12:46 47.41368 8.62727 5968 ft 304 kts 142°
2026-05-05 12:46 47.39675 8.64848 5972 ft 342 kts 147°
2026-05-05 12:47 47.37504 8.66455 5969 ft 345 kts 166°